Location: Newark
(46.7000°N, 60.6000°W)
Time: 12:36:25
(UTC+00:00)

A-11 Canister half - Pass Details

Date: 01 November 2020
Orbit: 1525 x 1684 km, 47.3° (Epoch: 01 December)

Event Time Altitude Azimuth Distance (km) Brightness Sun altitude
Rises 18:46:38 0° 251° (WSW) 4,797 12.8 16.4°
Reaches altitude 10° 18:49:46 10° 251° (WSW) 3,792 12.5 16.0°
Maximum altitude 18:59:22 85° 165° (SSE) 1,562 9.4 14.8°
Drops below altitude 10° 19:08:45 10° 78° (ENE) 3,702 10.5 13.6°
Sets 19:11:45 0° 79° (ENE) 4,679 11.0 13.2°
